Capitan Corbeta, Uruguay

4:07 AM -03 on June 28, 2017 (GMT -0300)
Capitan Curbelo International

Weather History for SULS - November, 2012

Change the Weather History Date:

Thursday, November 1, 2012

  Actual Average Record
Temperature  
Mean Temperature 70 °F -  
Max Temperature 86 °F 71 °F 86 °F (2012)
Min Temperature 55 °F 56 °F 44 °F (2015)
Cooling Degree Days 6    
Growing Degree Days 20 (Base 50)    
Moisture  
Dew Point 58 °F    
Average Humidity 72    
Maximum Humidity 88    
Minimum Humidity 51    
Precipitation  
Precipitation 0.00 in - - ()
Sea Level Pressure  
Sea Level Pressure 29.93 in    
Wind  
Wind Speed 5 mph ()    
Max Wind Speed 10 mph    
Max Gust Speed -    
Visibility 6.1 miles    
Events      
Averages and records for this station are not official NWS values.
T = Trace of Precipitation, MM = Missing Value Source: Averaged Metar Reports

Daily Weather History Graph

Daily Weather History Graph

Search for Another Location

Airport or City:

Trip Planner

Search our weather history database for the weather conditions in past years. The results will help you decide how hot, cold, wet, or windy it might be!

Date:

Astronomy

Nov. 01, 2012 Rise Set
Actual Time 6:37 AM -02 8:10 PM -02
Civil Twilight 6:10 AM -02 8:37 PM -02
Nautical Twilight 5:38 AM -02 9:09 PM -02
Astronomical Twilight 5:04 AM -02 9:43 PM -02
Moon 10:50 PM -02 (11/1) 8:19 AM -02 (11/1)
Length of Visible Light 14h 26m
Length of Day
13h 32m
Waning Gibbous, 93% of the Moon is Illuminated
Nov 1
Waning Gibbous
Nov 6
Last Quarter
Nov 13
New
Nov 20
First Quarter
Nov 28
Full

Hourly Weather History & Observations

Time (-02) Temp. Heat Index Dew Point Humidity Pressure Visibility Wind Dir Wind Speed Gust Speed Precip Events Conditions
12:00 AM 59.0 °F - 55.4 °F 88% 29.95 in - NE 6.9 mph - N/A   Clear
1:00 AM 59.0 °F - 55.4 °F 88% 29.95 in - NNE 4.6 mph - N/A   Partly Cloudy
2:00 AM 59.0 °F - 55.4 °F 88% 29.95 in 6.2 mi NE 4.6 mph - N/A   Scattered Clouds
4:00 AM 57.2 °F - 53.6 °F 88% 29.95 in 5.0 mi North 5.8 mph - N/A   Scattered Clouds
6:00 AM 55.4 °F - 51.8 °F 88% 29.95 in - NNW 3.5 mph - N/A   Clear
7:00 AM 55.4 °F - 51.8 °F 88% 29.95 in - NNW 3.5 mph - N/A   Clear
8:00 AM 59.0 °F - 55.4 °F 88% 29.98 in - NNW 3.5 mph - N/A   Clear
9:00 AM 60.8 °F - 53.6 °F 77% 29.95 in - North 3.5 mph - N/A   Clear
10:00 AM 68.0 °F - 57.2 °F 68% 29.95 in - WNW 5.8 mph - N/A   Clear
12:00 PM 75.2 °F - 59.0 °F 57% 29.95 in 6.2 mi West 8.1 mph - N/A   Partly Cloudy
1:00 PM 80.6 °F 81.5 °F 60.8 °F 51% 29.92 in 6.2 mi West 8.1 mph - N/A   Partly Cloudy
2:00 PM 80.6 °F 81.8 °F 62.6 °F 54% 29.95 in 6.2 mi SW 10.4 mph - N/A   Partly Cloudy
3:00 PM 86.0 °F 88.2 °F 66.2 °F 51% 29.95 in 6.2 mi SSW 6.9 mph - N/A   Partly Cloudy
4:00 PM 78.8 °F - 60.8 °F 54% 29.92 in 6.2 mi SW 5.8 mph - N/A   Partly Cloudy
5:00 PM 78.8 °F - 60.8 °F 54% 29.89 in 6.2 mi SSW 9.2 mph - N/A   Partly Cloudy
6:00 PM 78.8 °F - 62.6 °F 57% 29.89 in 6.2 mi WSW 9.2 mph - N/A   Partly Cloudy
7:00 PM 77.0 °F - 60.8 °F 57% 29.89 in 6.2 mi SSW 6.9 mph - N/A   Scattered Clouds
8:00 PM 68.0 °F - 57.2 °F 68% 29.89 in 6.2 mi SSW 4.6 mph - N/A   Mostly Cloudy
9:00 PM 62.6 °F - 55.4 °F 77% 29.92 in - Calm Calm - N/A   Clear
10:00 PM 62.6 °F - 57.2 °F 82% 29.92 in - Calm Calm - N/A   Clear
11:00 PM 64.4 °F - 60.8 °F 88% 29.92 in - Calm Calm - N/A   Clear